Wind_Speed
29 28 26 25 25 24 23 22 22 22 22 22 22 22 22 23 23 24 24 25 26 26 27 28 29 30 30 31 32 33 34 35 37 37 37 37 37 36 35 34 32 31 31
31 30 29 28 27 26 25 24 24 24 24 24 24 25 25 25 25 26 26 27 28 29 29 30 31 32 33 33 34 35 36 37 38 38 38 38 37 37 36 34 33 32 31
33 32 31 30 29 28 27 27 26 26 26 26 26 26 26 27 27 28 29 29 30 31 32 32 33 34 35 35 36 37 38 39 40 39 39 39 38 37 36 35 33 32 30
35 34 33 32 31 31 30 29 29 28 28 28 28 28 28 29 29 30 30 31 32 33 33 34 35 36 36 37 38 39 40 40 40 40 40 39 39 38 37 35 34 32 31
38 36 35 34 34 33 32 31 31 30 30 30 30 30 30 30 31 31 32 33 34 34 35 36 36 37 38 38 39 40 41 41 41 41 41 40 40 39 37 35 34 33 32
40 39 38 36 35 34 34 33 33 33 32 32 32 32 32 32 33 33 34 35 35 36 37 37 38 39 39 39 40 41 42 41 42 42 42 41 40 39 37 35 34 33 33
42 41 40 38 38 37 35 35 34 34 34 34 34 34 34 34 35 35 36 36 37 38 38 39 39 39 40 41 42 42 42 43 43 43 42 41 40 38 37 35 34 34 33
45 44 43 41 40 40 39 38 37 36 36 36 37 37 37 37 37 37 38 38 39 39 40 41 41 42 43 44 43 43 44 44 43 43 42 41 40 38 37 36 34 34 33
46 45 43 42 42 41 41 40 40 39 39 39 39 39 39 39 39 38 39 40 41 41 42 43 44 44 45 45 45 45 45 44 44 43 42 41 40 39 38 36 35 35 34
46 45 44 43 43 42 42 42 42 42 41 41 41 41 40 40 40 40 40 41 42 43 44 44 45 45 45 46 46 46 46 45 44 43 42 41 40 39 38 37 36 35 34
46 45 45 45 44 44 43 42 41 42 41 41 41 41 41 41 41 42 42 43 44 45 45 45 46 46 46 46 46 46 45 45 44 43 42 41 40 39 38 37 36 34 34
46 46 46 45 44 43 43 43 42 42 41 41 41 41 42 42 43 43 43 44 45 45 46 46 47 47 47 46 46 45 45 44 44 43 41 40 40 39 38 37 35 34 32
44 44 44 44 44 44 43 42 41 41 40 40 41 41 42 42 43 44 44 45 45 46 47 48 48 47 47 47 46 46 45 44 43 43 42 41 40 39 37 36 34 32 31
46 46 46 45 44 43 43 43 43 42 41 42 42 42 42 42 44 45 46 47 47 47 47 47 47 48 48 47 47 46 45 44 43 42 41 40 38 37 36 34 33 31 30
47 47 46 46 45 43 43 43 43 43 43 43 43 44 45 46 46 47 47 47 47 47 47 47 48 48 48 47 47 46 45 44 43 41 40 39 37 36 34 33 31 30 29
47 46 45 45 45 45 45 44 45 45 45 45 45 44 45 45 46 46 46 46 46 47 47 47 48 48 47 47 46 45 44 43 42 40 39 38 36 34 33 32 30 29 27
44 45 45 46 45 45 45 46 46 46 47 47 45 45 44 44 45 45 45 45 46 46 46 47 47 47 46 45 45 44 43 42 40 39 38 36 35 33 32 31 29 28 26
43 43 44 45 46 46 46 46 46 46 45 44 44 44 44 44 45 44 44 44 45 46 46 46 46 45 45 44 43 42 41 40 39 37 36 35 34 32 31 30 28 27 26
43 44 44 44 45 45 46 46 46 46 45 45 45 44 44 43 43 44 44 44 44 45 45 45 44 43 42 42 41 40 39 38 37 36 35 33 32 31 29 28 27 26 25
45 45 45 45 45 44 45 46 46 45 45 44 44 43 43 43 43 43 43 43 44 44 44 43 42 41 41 40 39 38 37 36 35 34 32 31 30 29 28 27 27 25 25
45 46 46 46 45 45 46 45 45 44 44 44 43 43 43 43 42 42 42 42 42 42 42 41 40 40 39 39 38 37 35 34 32 31 30 29 28 27 27 27 26 25 24
46 46 46 46 46 46 46 45 45 44 44 43 43 43 42 42 42 41 41 41 40 40 39 39 39 39 39 38 37 35 34 32 31 30 28 27 27 26 26 26 25 24 24
47 47 46 46 46 45 45 45 45 44 43 43 42 42 41 41 40 40 40 39 39 38 38 38 38 37 37 35 34 33 32 30 30 29 27 27 27 26 25 25 24 24 24
46 46 45 45 45 45 44 44 44 43 43 42 41 41 40 39 39 39 39 38 38 37 37 37 36 35 34 34 33 31 30 30 29 28 27 27 26 26 24 24 23 23 24
44 44 44 44 44 44 44 44 43 43 43 42 41 40 39 39 39 39 38 38 38 37 36 35 35 34 33 32 31 30 29 29 28 27 26 26 25 24 24 24 24 24 24
43 44 44 44 44 44 43 43 42 42 41 41 40 40 39 39 39 38 38 37 37 36 35 35 34 33 32 31 30 29 29 28 27 27 26 25 25 25 25 24 24 24 25
Wind_Direction
237 238 239 241 242 243 246 248 250 253 255 257 259 262 265 269 273 276 280 283 286 289 292 295 297 300 302 304 306 308 310 312 315 316 317 317 317 316 315 314 312 311 311
237 239 240 241 242 244 245 248 250 254 256 258 261 264 267 270 274 277 280 283 286 289 291 294 296 299 301 302 304 306 308 310 312 314 314 315 315 314 313 312 310 309 309
237 239 241 243 243 244 246 248 251 254 257 259 262 265 268 271 275 278 281 284 286 289 291 293 295 298 299 301 302 304 306 309 310 311 312 312 312 312 311 309 308 307 307
238 239 241 243 244 245 247 249 252 254 257 260 263 266 269 272 275 278 281 284 286 289 290 292 295 297 298 300 302 303 305 307 308 309 310 310 310 309 308 306 305 305 305
238 239 240 242 244 246 248 250 252 255 258 261 264 267 270 273 276 279 282 284 287 289 291 293 295 296 297 299 300 302 304 305 306 307 307 307 307 306 305 304 303 302 302
238 240 242 244 245 247 249 251 254 256 259 262 265 268 271 274 277 280 282 284 286 288 290 293 295 296 297 298 300 301 302 303 304 305 305 305 304 304 303 302 300 299 300
238 240 243 245 247 248 251 254 256 258 260 263 265 268 272 275 277 279 281 283 286 289 291 293 294 295 297 298 299 300 301 302 302 303 303 302 302 301 300 299 298 297 297
240 242 245 247 249 250 252 255 256 258 261 263 266 269 271 274 276 279 281 283 286 289 291 292 293 294 296 297 298 299 300 300 300 300 300 300 299 299 298 297 295 295 295
242 244 246 247 249 251 254 257 258 260 262 265 267 270 272 273 276 279 281 284 286 288 290 291 293 294 296 297 297 298 299 298 298 298 298 297 297 296 295 294 293 293 292
243 245 247 248 250 253 256 258 260 261 263 265 267 269 272 274 276 278 281 283 286 288 289 290 292 294 295 295 296 297 297 296 296 296 295 294 294 293 292 291 291 291 290
247 248 250 251 252 253 256 258 259 261 262 264 266 268 271 274 277 279 281 284 286 287 289 290 292 293 295 295 295 295 295 294 294 294 293 292 292 291 290 290 290 288 287
247 249 250 251 252 254 256 259 261 261 263 264 267 269 272 274 277 280 282 284 286 287 288 290 292 293 294 294 294 294 293 293 293 292 292 291 291 290 289 289 287 285 284
247 249 250 252 254 255 257 260 262 263 265 267 270 272 273 275 278 279 281 283 285 286 288 290 291 292 292 293 293 292 292 291 291 291 291 291 290 288 287 287 285 282 281
250 252 253 255 255 257 259 262 263 264 267 270 271 272 274 277 278 279 281 283 284 286 287 288 289 290 291 291 291 291 290 290 290 290 290 289 287 286 286 284 282 279 279
254 253 253 254 257 259 261 262 263 266 268 270 272 273 276 277 278 280 281 282 284 285 285 287 288 289 289 289 290 290 290 289 288 288 288 287 286 285 284 282 279 277 275
254 253 253 254 256 258 261 263 265 267 269 271 273 275 277 277 278 280 282 282 283 284 285 286 287 288 288 288 289 288 288 288 287 287 287 286 285 283 282 279 278 275 271
254 255 256 256 257 258 261 263 265 267 269 272 273 275 275 276 278 281 282 283 284 285 286 287 287 287 287 287 287 288 287 288 286 286 285 284 282 281 280 277 274 271 268
255 255 256 257 258 259 261 263 265 267 270 271 273 275 276 277 279 281 283 284 285 285 286 286 286 286 286 286 287 287 287 287 286 285 284 282 281 279 277 274 271 268 265
257 257 258 259 260 261 262 263 266 268 269 271 274 276 277 279 281 282 283 283 284 284 285 286 286 286 286 286 286 286 286 286 285 284 282 281 279 276 274 272 269 266 263
259 259 260 262 262 263 264 265 266 268 269 271 274 276 278 279 280 281 281 282 283 284 284 285 285 285 285 285 285 286 286 285 284 282 281 279 277 273 271 269 267 263 260
261 260 262 263 263 263 264 265 266 268 269 271 273 275 277 277 278 279 280 281 282 283 283 283 284 284 284 285 285 285 284 283 282 280 278 276 273 271 270 269 266 261 259
261 262 262 263 263 263 264 265 267 268 270 271 273 274 274 275 275 277 279 280 281 281 282 282 283 283 284 284 284 283 282 281 279 278 276 273 271 270 270 269 265 260 259
261 261 262 263 263 263 264 265 266 267 268 270 271 271 272 272 274 276 278 279 279 279 281 282 282 283 282 282 281 280 279 278 276 275 273 272 271 270 269 266 263 261 260
261 261 261 262 262 262 264 265 265 266 267 268 268 269 270 271 273 275 276 276 277 279 280 280 280 281 280 280 278 277 276 275 274 273 272 271 270 269 268 264 263 263 261
261 261 261 261 261 261 261 262 264 264 265 266 267 267 269 271 273 274 275 275 277 278 278 278 279 279 278 277 276 275 274 272 272 272 271 270 269 267 266 264 263 263 261
262 260 259 259 259 260 261 261 261 262 263 264 266 267 269 270 272 273 274 274 275 276 277 277 277 276 275 274 274 273 272 272 271 270 269 268 267 266 265 264 263 263 262
Height
5842 5844 5845 5847 5848 5849 5850 5851 5851 5852 5853 5853 5853 5853 5853 5853 5853 5852 5851 5850 5849 5848 5846 5844 5842 5839 5837 5835 5832 5829 5826 5824 5820 5816 5813 5809 5805 5802 5798 5794 5791 5788 5784
5837 5838 5840 5841 5843 5844 5845 5846 5847 5847 5848 5848 5848 5848 5848 5848 5848 5847 5846 5845 5844 5842 5841 5839 5836 5834 5832 5829 5827 5824 5821 5818 5814 5811 5807 5803 5800 5796 5793 5789 5786 5782 5779
5831 5833 5834 5836 5837 5838 5839 5840 5841 5842 5842 5843 5843 5843 5843 5842 5842 5841 5840 5839 5838 5836 5835 5833 5831 5828 5826 5823 5821 5818 5815 5811 5808 5805 5801 5797 5794 5790 5786 5783 5780 5776 5773
5824 5826 5828 5830 5831 5832 5833 5834 5835 5836 5836 5837 5837 5837 5837 5836 5836 5835 5834 5833 5832 5830 5828 5826 5824 5822 5819 5817 5814 5811 5808 5805 5801 5798 5794 5791 5787 5783 5780 5777 5773 5770 5767
5817 5820 5821 5823 5824 5826 5827 5828 5829 5829 5830 5830 5831 5831 5830 5830 5829 5828 5827 5826 5825 5823 5821 5820 5817 5815 5812 5810 5807 5804 5801 5798 5794 5791 5787 5784 5780 5777 5773 5770 5767 5764 5761
5810 5812 5814 5816 5817 5819 5820 5821 5822 5823 5823 5824 5824 5824 5824 5823 5822 5821 5820 5819 5817 5816 5814 5812 5810 5808 5805 5802 5799 5796 5793 5790 5787 5783 5780 5776 5773 5769 5766 5763 5760 5757 5755
5802 5804 5806 5808 5810 5811 5813 5814 5815 5816 5816 5816 5816 5817 5816 5816 5815 5814 5813 5811 5810 5808 5807 5804 5802 5800 5797 5795 5792 5789 5785 5782 5779 5775 5772 5768 5765 5762 5759 5756 5753 5750 5748
5794 5796 5798 5800 5802 5803 5804 5806 5807 5808 5808 5808 5809 5809 5809 5809 5807 5806 5805 5803 5802 5800 5798 5796 5794 5791 5789 5786 5783 5780 5777 5774 5770 5767 5763 5760 5757 5754 5751 5748 5745 5743 5740
5785 5788 5790 5792 5793 5795 5796 5797 5798 5799 5800 5800 5800 5801 5800 5800 5800 5799 5797 5795 5794 5792 5790 5787 5785 5783 5780 5777 5774 5771 5768 5765 5761 5758 5755 5752 5748 5746 5743 5740 5737 5735 5733
5777 5780 5781 5783 5784 5786 5787 5788 5790 5790 5791 5791 5791 5791 5791 5791 5790 5790 5789 5787 5785 5783 5781 5779 5776 5773 5771 5768 5765 5762 5759 5756 5752 5749 5746 5743 5740 5737 5734 5732 5729 5727 5725
5768 5770 5772 5774 5776 5777 5778 5779 5780 5781 5781 5782 5782 5782 5782 5782 5781 5780 5780 5778 5776 5773 5771 5769 5766 5764 5761 5758 5755 5752 5749 5746 5742 5739 5736 5733 5730 5728 5725 5723 5720 5718 5716
5759 5761 5763 5765 5767 5768 5769 5770 5771 5771 5772 5772 5773 5773 5773 5773 5772 5771 5769 5768 5766 5764 5761 5759 5756 5753 5750 5747 5744 5741 5738 5735 5732 5729 5726 5724 5721 5718 5716 5714 5711 5709 5708
5749 5751 5753 5755 5757 5758 5760 5760 5761 5762 5762 5763 5763 5763 5763 5762 5762 5760 5759 5757 5756 5754 5751 5748 5745 5743 5740 5737 5734 5731 5728 5725 5722 5719 5716 5714 5711 5709 5706 5704 5703 5701 5700
5739 5742 5744 5745 5747 5748 5749 5750 5751 5752 5752 5753 5753 5753 5752 5752 5751 5750 5748 5747 5745 5743 5741 5738 5734 5732 5729 5726 5723 5720 5717 5714 5711 5708 5706 5703 5701 5699 5697 5695 5693 5692 5691
5729 5732 5733 5735 5736 5737 5739 5739 5740 5741 5742 5742 5742 5742 5742 5741 5740 5738 5737 5735 5734 5732 5730 5727 5724 5721 5718 5715 5712 5709 5706 5703 5701 5698 5696 5693 5691 5689 5688 5686 5685 5684 5683
5719 5721 5722 5724 5725 5727 5728 5729 5730 5730 5731 5731 5731 5731 5730 5729 5728 5727 5725 5724 5722 5720 5718 5716 5713 5710 5706 5704 5701 5698 5695 5693 5690 5688 5686 5684 5682 5680 5678 5677 5676 5675 5675
5707 5709 5711 5712 5714 5715 5716 5717 5718 5719 5719 5719 5719 5719 5718 5717 5716 5715 5713 5712 5710 5708 5706 5704 5701 5698 5695 5692 5689 5687 5684 5682 5680 5678 5676 5674 5672 5670 5669 5669 5668 5667 5667
5696 5697 5699 5700 5702 5703 5705 5706 5706 5707 5707 5707 5707 5707 5706 5706 5705 5703 5702 5700 5698 5696 5694 5692 5689 5687 5684 5681 5679 5676 5674 5672 5669 5667 5666 5664 5663 5661 5660 5660 5659 5659 5660
5684 5685 5687 5688 5690 5691 5692 5693 5694 5695 5695 5695 5695 5695 5694 5693 5693 5691 5690 5688 5687 5684 5682 5680 5678 5675 5673 5670 5668 5666 5664 5661 5660 5658 5656 5655 5654 5653 5652 5652 5651 5652 5652
5671 5673 5674 5676 5677 5679 5680 5681 5681 5682 5682 5682 5682 5682 5682 5681 5681 5680 5678 5677 5675 5673 5671 5669 5667 5664 5662 5660 5658 5656 5654 5652 5650 5649 5647 5646 5645 5644 5644 5644 5644 5644 5644
5659 5660 5662 5663 5665 5666 5667 5668 5668 5669 5669 5670 5670 5670 5670 5669 5668 5667 5666 5665 5663 5661 5659 5658 5656 5654 5651 5649 5648 5646 5644 5642 5641 5640 5639 5638 5637 5636 5636 5636 5636 5636 5637
5646 5647 5648 5650 5651 5653 5654 5655 5655 5656 5657 5657 5658 5658 5658 5657 5657 5656 5655 5653 5652 5650 5649 5647 5645 5643 5641 5639 5638 5636 5635 5634 5633 5632 5631 5630 5629 5629 5628 5628 5629 5629 5630
5632 5634 5635 5636 5638 5640 5641 5642 5643 5644 5645 5645 5645 5646 5646 5645 5645 5644 5643 5642 5641 5640 5638 5636 5635 5633 5631 5630 5628 5627 5626 5625 5624 5623 5623 5622 5622 5621 5621 5621 5621 5622 5623
5618 5620 5621 5623 5625 5626 5628 5629 5630 5631 5632 5633 5633 5634 5634 5634 5633 5633 5632 5631 5630 5629 5627 5626 5624 5623 5621 5620 5619 5618 5617 5616 5615 5615 5614 5614 5614 5614 5614 5614 5614 5615 5616
5605 5606 5608 5610 5612 5613 5615 5616 5618 5619 5620 5621 5621 5621 5622 5622 5621 5621 5621 5620 5619 5618 5616 5615 5614 5613 5611 5611 5610 5609 5608 5608 5607 5607 5606 5606 5606 5606 5607 5607 5607 5608 5609
5591 5593 5595 5597 5599 5600 5602 5603 5605 5606 5607 5608 5609 5609 5610 5610 5610 5609 5609 5608 5608 5607 5606 5605 5604 5603 5602 5601 5601 5600 5600 5599 5599 5599 5599 5599 5599 5599 5599 5600 5600 5600 5601